N50VG LPPR-LPPT

Flight info

Callsign N50VG
Flight time 0h 43m
Altitude 21000
Route MANIK DCT ABRIL DCT XAMAX
Aircraft SF50/L-BDGRSWY/LB2U2

Departure

Time 2026-05-01 11:26
Airport Francisco de Sá Carneiro Airport (LPPR)

Arrival

Time 2026-05-01 12:10
Airport Lisbon Humberto Delgado Airport (LPPT)
Time Latitude Longitude Altitude Speed Heading
2026-05-01 11:11 41.23484 -8.68303 229 ft 0 kts
2026-05-01 11:22 41.23489 -8.68302 229 ft 4 kts
2026-05-01 11:22 41.23522 -8.68273 229 ft 9 kts 89°
2026-05-01 11:23 41.23529 -8.68188 229 ft 8 kts 84°
2026-05-01 11:23 41.23533 -8.68132 229 ft 4 kts 84°
2026-05-01 11:23 41.23535 -8.68113 229 ft 2 kts 84°
2026-05-01 11:23 41.23528 -8.68050 229 ft 12 kts 129°
2026-05-01 11:24 41.23458 -8.68014 229 ft 8 kts 156°
2026-05-01 11:24 41.23412 -8.67982 229 ft 7 kts 147°
2026-05-01 11:24 41.23362 -8.67905 229 ft 8 kts 123°
2026-05-01 11:25 41.23321 -8.67822 230 ft 14 kts 124°
2026-05-01 11:25 41.23385 -8.67750 231 ft 16 kts 349°
2026-05-01 11:25 41.23698 -8.67831 228 ft 74 kts 349°
2026-05-01 11:26 41.24109 -8.67936 263 ft 102 kts 346°
2026-05-01 11:26 41.25558 -8.68287 1036 ft 112 kts 348°
2026-05-01 11:26 41.26382 -8.68455 1345 ft 126 kts 350°
2026-05-01 11:27 41.27188 -8.68686 1759 ft 119 kts 343°
2026-05-01 11:27 41.28087 -8.68973 1862 ft 149 kts 347°
2026-05-01 11:27 41.29186 -8.69275 2087 ft 172 kts 348°
2026-05-01 11:27 41.30370 -8.69588 2579 ft 175 kts 348°
2026-05-01 11:28 41.31576 -8.69908 3110 ft 177 kts 348°
2026-05-01 11:28 41.32760 -8.70345 3584 ft 179 kts 329°
2026-05-01 11:28 41.33495 -8.71614 4068 ft 176 kts 281°
2026-05-01 11:29 41.32493 -8.74260 5044 ft 167 kts 206°
2026-05-01 11:29 41.31370 -8.74523 5499 ft 166 kts 174°
2026-05-01 11:29 41.29075 -8.74005 6388 ft 168 kts 173°
2026-05-01 11:30 41.27907 -8.73813 6813 ft 170 kts 173°
2026-05-01 11:30 41.26729 -8.73623 7214 ft 171 kts 174°
2026-05-01 11:30 41.25542 -8.73427 7618 ft 172 kts 174°
2026-05-01 11:30 41.24361 -8.73234 8011 ft 174 kts 174°
2026-05-01 11:31 41.23154 -8.73035 8410 ft 175 kts 174°
2026-05-01 11:31 41.21940 -8.72837 8801 ft 176 kts 175°
2026-05-01 11:31 41.20717 -8.72635 9192 ft 178 kts 175°
2026-05-01 11:31 41.19479 -8.72431 9576 ft 179 kts 175°
2026-05-01 11:32 41.18235 -8.72225 9965 ft 180 kts 175°
2026-05-01 11:32 41.16981 -8.72018 10319 ft 182 kts 175°
2026-05-01 11:32 41.15727 -8.71811 10677 ft 182 kts 175°
2026-05-01 11:32 41.14469 -8.71604 11039 ft 182 kts 175°
2026-05-01 11:33 41.13210 -8.71397 11402 ft 182 kts 175°
2026-05-01 11:33 41.11966 -8.71191 11763 ft 182 kts 176°
2026-05-01 11:33 41.10705 -8.70985 12127 ft 183 kts 176°
2026-05-01 11:33 41.09443 -8.70776 12494 ft 183 kts 176°
2026-05-01 11:34 41.08176 -8.70569 12864 ft 183 kts 176°
2026-05-01 11:34 41.06905 -8.70360 13250 ft 184 kts 176°
2026-05-01 11:34 41.05636 -8.70153 13630 ft 184 kts 176°
2026-05-01 11:34 41.04360 -8.69944 13996 ft 185 kts 176°
2026-05-01 11:35 41.03080 -8.69737 14322 ft 185 kts 176°
2026-05-01 11:35 41.01795 -8.69526 14647 ft 186 kts 177°
2026-05-01 11:35 41.00505 -8.69317 14966 ft 187 kts 177°
2026-05-01 11:35 40.99208 -8.69104 15291 ft 188 kts 177°
2026-05-01 11:36 40.97905 -8.68893 15618 ft 189 kts 178°
2026-05-01 11:36 40.96596 -8.68678 15944 ft 190 kts 178°
2026-05-01 11:36 40.95278 -8.68465 16272 ft 191 kts 178°
2026-05-01 11:36 40.93954 -8.68247 16599 ft 192 kts 178°
2026-05-01 11:37 40.92625 -8.68031 16933 ft 193 kts 178°
2026-05-01 11:37 40.91290 -8.67811 17262 ft 194 kts 178°
2026-05-01 11:37 40.89946 -8.67593 17600 ft 195 kts 179°
2026-05-01 11:37 40.88597 -8.67371 17937 ft 196 kts 179°
2026-05-01 11:38 40.87255 -8.67153 18275 ft 197 kts 179°
2026-05-01 11:38 40.85893 -8.66931 18600 ft 198 kts 179°
2026-05-01 11:38 40.84523 -8.66706 18896 ft 199 kts 179°
2026-05-01 11:38 40.83144 -8.66481 19204 ft 200 kts 179°
2026-05-01 11:39 40.81761 -8.66254 19505 ft 201 kts 179°
2026-05-01 11:39 40.80369 -8.66029 19807 ft 202 kts 179°
2026-05-01 11:39 40.78970 -8.65802 20112 ft 203 kts 179°
2026-05-01 11:39 40.77564 -8.65575 20416 ft 204 kts 179°
2026-05-01 11:40 40.76171 -8.65349 20721 ft 205 kts 179°
2026-05-01 11:40 40.74752 -8.65119 21030 ft 206 kts 179°
2026-05-01 11:40 40.73309 -8.64888 21181 ft 215 kts 179°
2026-05-01 11:40 40.71775 -8.64644 21190 ft 228 kts 179°
2026-05-01 11:41 40.70160 -8.64381 21196 ft 239 kts 178°
2026-05-01 11:41 40.68475 -8.64108 21192 ft 248 kts 178°
2026-05-01 11:41 40.66738 -8.63825 21192 ft 255 kts 178°
2026-05-01 11:41 40.64952 -8.63537 21192 ft 261 kts 178°
2026-05-01 11:42 40.63152 -8.63244 21191 ft 265 kts 178°
2026-05-01 11:42 40.61308 -8.62947 21189 ft 269 kts 178°
2026-05-01 11:42 40.59438 -8.62641 21190 ft 272 kts 178°
2026-05-01 11:42 40.57553 -8.62335 21191 ft 274 kts 178°
2026-05-01 11:43 40.55651 -8.62030 21190 ft 276 kts 178°
2026-05-01 11:43 40.53740 -8.61721 21190 ft 278 kts 178°
2026-05-01 11:43 40.51818 -8.61410 21187 ft 279 kts 178°
2026-05-01 11:44 40.47940 -8.60786 21186 ft 282 kts 178°
2026-05-01 11:44 40.45990 -8.60471 21188 ft 283 kts 178°
2026-05-01 11:44 40.44034 -8.60156 21188 ft 284 kts 178°
2026-05-01 11:44 40.42071 -8.59839 21176 ft 284 kts 178°
2026-05-01 11:45 40.40104 -8.59523 21184 ft 285 kts 178°
2026-05-01 11:45 40.38134 -8.59208 21185 ft 286 kts 178°
2026-05-01 11:45 40.36158 -8.58892 21183 ft 286 kts 178°
2026-05-01 11:45 40.34178 -8.58574 21184 ft 287 kts 178°
2026-05-01 11:46 40.32194 -8.58255 21183 ft 287 kts 178°
2026-05-01 11:46 40.30209 -8.57938 21181 ft 288 kts 178°
2026-05-01 11:46 40.28220 -8.57621 21178 ft 288 kts 178°
2026-05-01 11:46 40.26232 -8.57303 21179 ft 288 kts 178°
2026-05-01 11:47 40.24239 -8.56984 21179 ft 289 kts 178°
2026-05-01 11:47 40.22241 -8.56665 21178 ft 289 kts 178°
2026-05-01 11:47 40.20242 -8.56346 21175 ft 290 kts 178°
2026-05-01 11:47 40.18242 -8.56027 21175 ft 290 kts 178°
2026-05-01 11:48 40.16245 -8.55712 21172 ft 289 kts 178°
2026-05-01 11:48 40.14248 -8.55391 21170 ft 289 kts 178°
2026-05-01 11:48 40.12250 -8.55071 21168 ft 289 kts 178°
2026-05-01 11:48 40.10252 -8.54753 21171 ft 289 kts 178°
2026-05-01 11:49 40.08278 -8.54439 21168 ft 290 kts 178°
2026-05-01 11:49 40.06276 -8.54119 21168 ft 290 kts 178°
2026-05-01 11:49 40.04274 -8.53802 21168 ft 290 kts 178°
2026-05-01 11:49 40.02270 -8.53533 21163 ft 288 kts 181°
2026-05-01 11:50 40.00269 -8.53373 21165 ft 288 kts 181°
2026-05-01 11:50 39.98270 -8.53215 21166 ft 288 kts 181°
2026-05-01 11:50 39.96271 -8.53046 21159 ft 288 kts 181°
2026-05-01 11:50 39.94271 -8.52876 21158 ft 288 kts 181°
2026-05-01 11:51 39.92272 -8.52710 21143 ft 288 kts 181°
2026-05-01 11:51 39.90273 -8.52545 21157 ft 288 kts 181°
2026-05-01 11:51 39.88274 -8.52379 21158 ft 288 kts 181°
2026-05-01 11:51 39.86276 -8.52212 21159 ft 288 kts 181°
2026-05-01 11:52 39.84277 -8.52045 21160 ft 288 kts 181°
2026-05-01 11:52 39.82279 -8.51880 21158 ft 288 kts 181°
2026-05-01 11:52 39.80280 -8.51717 21157 ft 288 kts 181°
2026-05-01 11:52 39.78279 -8.51583 21159 ft 286 kts 185°
2026-05-01 11:53 39.76322 -8.51874 21158 ft 282 kts 195°
2026-05-01 11:53 39.74453 -8.52614 20954 ft 280 kts 205°
2026-05-01 11:53 39.72738 -8.53778 20602 ft 277 kts 213°
2026-05-01 11:53 39.71163 -8.55047 20249 ft 278 kts 213°
2026-05-01 11:54 39.69509 -8.56341 19879 ft 278 kts 212°
2026-05-01 11:54 39.67854 -8.57636 19512 ft 278 kts 212°
2026-05-01 11:54 39.66204 -8.58938 19142 ft 279 kts 212°
2026-05-01 11:54 39.64541 -8.60250 18772 ft 279 kts 212°
2026-05-01 11:55 39.62893 -8.61543 18396 ft 280 kts 212°
2026-05-01 11:55 39.61224 -8.62852 18001 ft 280 kts 211°
2026-05-01 11:55 39.59557 -8.64166 17624 ft 281 kts 211°
2026-05-01 11:55 39.57878 -8.65483 17245 ft 282 kts 211°
2026-05-01 11:56 39.56191 -8.66802 16874 ft 284 kts 211°
2026-05-01 11:56 39.54498 -8.68130 16497 ft 285 kts 211°
2026-05-01 11:56 39.52798 -8.69464 16116 ft 286 kts 211°
2026-05-01 11:56 39.51095 -8.70797 15739 ft 287 kts 211°
2026-05-01 11:57 39.49385 -8.72136 15355 ft 287 kts 210°
2026-05-01 11:57 39.47739 -8.73422 14990 ft 288 kts 210°
2026-05-01 11:57 39.46026 -8.74760 14605 ft 287 kts 210°
2026-05-01 11:57 39.44320 -8.76094 14224 ft 285 kts 210°
2026-05-01 11:58 39.42626 -8.77418 13834 ft 284 kts 210°
2026-05-01 11:58 39.40962 -8.78715 13444 ft 282 kts 210°
2026-05-01 11:58 39.37458 -8.80916 12694 ft 280 kts 202°
2026-05-01 11:59 39.35653 -8.81933 12321 ft 279 kts 203°
2026-05-01 11:59 39.33906 -8.82927 11958 ft 278 kts 203°
2026-05-01 11:59 39.32136 -8.83916 11588 ft 276 kts 203°
2026-05-01 12:00 39.28609 -8.85886 10860 ft 275 kts 203°
2026-05-01 12:00 39.26858 -8.86866 10494 ft 274 kts 203°
2026-05-01 12:00 39.23364 -8.88815 9741 ft 272 kts 202°
2026-05-01 12:01 39.21631 -8.89782 9379 ft 271 kts 203°
2026-05-01 12:01 39.19907 -8.90743 9020 ft 270 kts 203°
2026-05-01 12:01 39.18188 -8.91703 8657 ft 269 kts 203°
2026-05-01 12:01 39.16474 -8.92657 8298 ft 268 kts 203°
2026-05-01 12:02 39.14767 -8.93609 7946 ft 267 kts 203°
2026-05-01 12:02 39.13064 -8.94555 7587 ft 265 kts 203°
2026-05-01 12:02 39.11487 -8.95432 7254 ft 229 kts 204°
2026-05-01 12:02 39.10111 -8.96198 6968 ft 203 kts 203°
2026-05-01 12:03 39.08858 -8.96891 6705 ft 201 kts 203°
2026-05-01 12:03 39.07500 -8.97639 6425 ft 224 kts 203°
2026-05-01 12:03 39.06015 -8.98466 6115 ft 238 kts 204°
2026-05-01 12:03 39.04474 -8.99322 5784 ft 242 kts 203°
2026-05-01 12:04 39.02922 -9.00177 5454 ft 242 kts 203°
2026-05-01 12:04 39.01380 -9.01035 5138 ft 241 kts 204°
2026-05-01 12:04 38.99838 -9.01892 4808 ft 242 kts 203°
2026-05-01 12:04 38.98298 -9.02744 4483 ft 240 kts 203°
2026-05-01 12:05 38.96765 -9.03597 4161 ft 241 kts 203°
2026-05-01 12:05 38.93663 -9.05232 3442 ft 233 kts 202°
2026-05-01 12:05 38.92191 -9.06034 3126 ft 227 kts 204°
2026-05-01 12:06 38.90745 -9.06824 2816 ft 223 kts 203°
2026-05-01 12:06 38.89397 -9.07536 2532 ft 198 kts 203°
2026-05-01 12:06 38.88190 -9.08200 2274 ft 181 kts 204°
2026-05-01 12:06 38.87070 -9.08792 2045 ft 168 kts 202°
2026-05-01 12:07 38.86052 -9.09340 1832 ft 152 kts 205°
2026-05-01 12:07 38.85121 -9.09845 1643 ft 133 kts 204°
2026-05-01 12:07 38.84396 -9.10220 1470 ft 96 kts 204°
2026-05-01 12:07 38.83806 -9.10525 1299 ft 101 kts 205°
2026-05-01 12:08 38.83088 -9.10901 1228 ft 123 kts 204°
2026-05-01 12:08 38.82311 -9.11351 1042 ft 118 kts 206°
2026-05-01 12:08 38.81603 -9.11751 872 ft 104 kts 203°
2026-05-01 12:08 38.80964 -9.12083 692 ft 90 kts 203°
2026-05-01 12:09 38.80391 -9.12388 616 ft 94 kts 203°
2026-05-01 12:09 38.79787 -9.12705 515 ft 95 kts 204°
2026-05-01 12:09 38.79179 -9.13034 394 ft 93 kts 204°
2026-05-01 12:09 38.78664 -9.13306 354 ft 66 kts 201°
2026-05-01 12:10 38.78340 -9.13481 358 ft 34 kts 203°
2026-05-01 12:10 38.78055 -9.13634 363 ft 21 kts 204°
2026-05-01 12:10 38.77861 -9.13734 357 ft 24 kts 196°
2026-05-01 12:11 38.77586 -9.13758 356 ft 15 kts 179°
2026-05-01 12:11 38.77498 -9.13753 354 ft 12 kts 180°
2026-05-01 12:11 38.77411 -9.13756 352 ft 15 kts 191°
2026-05-01 12:12 38.77320 -9.13794 353 ft 11 kts 190°
2026-05-01 12:12 38.77260 -9.13741 346 ft 13 kts 100°
2026-05-01 12:12 38.77276 -9.13626 344 ft 13 kts 77°
2026-05-01 12:12 38.77297 -9.13527 338 ft 11 kts 41°
2026-05-01 12:13 38.77371 -9.13523 341 ft 15 kts 347°
2026-05-01 12:13 38.77459 -9.13524 340 ft 11 kts 38°
2026-05-01 12:13 38.77516 -9.13464 339 ft 13 kts 31°
2026-05-01 12:13 38.77619 -9.13408 335 ft 6 kts 34°
2026-05-01 12:14 38.77680 -9.13377 336 ft 15 kts 17°
2026-05-01 12:14 38.77736 -9.13291 331 ft 14 kts 77°
2026-05-01 12:14 38.77753 -9.13216 328 ft 9 kts 40°
2026-05-01 12:14 38.77820 -9.13222 334 ft 8 kts 348°
2026-05-01 12:15 38.77854 -9.13211 332 ft 3 kts 35°
2026-05-01 12:15 38.77883 -9.13194 333 ft 3 kts 14°
2026-05-01 12:15 38.77892 -9.13190 334 ft 2 kts 14°
2026-05-01 12:15 38.77902 -9.13187 335 ft 1 kts 10°
2026-05-01 12:16 38.77878 -9.13203 333 ft 5 kts 76°
2026-05-01 12:16 38.77894 -9.13190 334 ft 2 kts 24°
2026-05-01 12:16 38.77897 -9.13189 335 ft 0 kts 17°